Date,TemperatureHighF,TemperatureAvgF,TemperatureLowF,DewpointHighF,DewpointAvgF,DewpointLowF,HumidityHigh,HumidityAvg,HumidityLow,PressureMaxIn,PressureMinIn,WindSpeedMaxMPH,WindSpeedAvgMPH,GustSpeedMaxMPH,PrecipitationSumIn
2013-10-10,62.7,51.0,37.9,50.8,43.8,37.1,98,79,48,30.49,30.36,6,1,7,0.01
2013-10-11,67.8,54.0,43.0,50.3,45.9,41.1,94,76,38,30.36,30.27,7,1,9,0.00
2013-10-12,73.8,54.2,35.6,52.4,45.5,34.8,98,76,41,30.46,30.32,6,1,10,0.00
2013-10-13,67.0,57.6,45.3,52.9,49.4,43.4,96,76,57,30.52,30.43,8,2,11,0.00
2013-10-14,59.7,54.7,52.3,55.1,51.6,48.2,98,90,69,30.49,30.43,5,2,8,0.02
2013-10-15,67.2,57.1,49.9,56.7,52.7,49.4,99,86,64,30.46,30.22,6,1,10,0.00
2013-10-16,62.3,57.8,54.1,54.2,51.0,45.6,89,78,70,30.22,29.98,8,4,11,0.00
2013-10-17,64.2,56.0,47.8,55.4,49.7,45.7,98,81,55,30.06,29.81,11,3,13,0.28
2013-10-18,56.7,51.2,41.6,50.2,44.6,38.9,98,79,54,30.12,29.83,11,4,16,0.00
2013-10-19,61.0,49.2,39.5,47.5,42.7,38.2,96,80,47,30.11,29.84,12,2,22,0.07
2013-10-20,51.9,45.7,36.3,42.4,38.4,34.3,95,76,59,30.20,29.88,12,4,18,0.00
2013-10-21,62.4,51.7,38.7,42.3,39.5,36.6,94,66,42,30.25,30.03,10,4,13,0.00
2013-10-22,53.1,45.6,33.7,43.9,37.4,31.6,92,74,57,30.03,29.91,10,3,13,0.00
2013-10-23,46.0,38.8,33.5,37.0,34.2,31.7,94,84,63,30.00,29.84,8,2,11,0.01
2013-10-24,45.6,37.9,29.2,35.3,31.2,27.9,96,78,54,30.14,29.96,11,5,22,0.02
2013-10-25,43.4,37.6,32.3,37.3,34.0,31.0,96,87,70,30.35,30.14,8,3,12,0.01
2013-10-26,44.5,39.6,32.3,35.6,31.4,28.5,97,73,56,30.34,30.02,10,5,17,0.00
2013-10-27,46.7,40.8,35.5,36.8,34.2,29.9,90,78,54,30.26,30.00,12,4,17,0.00
2013-10-28,47.6,38.8,27.1,38.6,32.0,24.6,92,77,62,30.56,30.25,11,4,16,0.00
2013-10-29,42.4,31.8,21.1,27.9,22.4,15.8,95,72,35,30.67,30.53,4,1,8,0.00
2013-10-30,55.9,39.8,31.7,42.1,34.4,24.5,95,82,59,30.52,30.36,6,1,8,0.00
2013-10-31,58.5,49.3,33.4,57.0,48.2,32.1,98,96,93,30.38,29.74,9,4,15,0.21